Andalusia, AL

10:10 PM CST on February 21, 2018 (GMT -0600)
Andalusia

Weather History for K79J - August, 2014

Change the Weather History Date:

Sunday, August 24, 2014

  Actual Average (KCEW) Record (KCEW)
Temperature  
Mean Temperature 90 °F -  
Max Temperature 102 °F 91 °F 100 °F (2014)
Min Temperature 78 °F 70 °F 62 °F (1997)
Cooling Degree Days 25    
Growing Degree Days 40 (Base 50)    
Moisture  
Dew Point 72 °F    
Average Humidity 62    
Maximum Humidity 81    
Minimum Humidity 38    
Precipitation  
Precipitation 0.00 in - - ()
Sea Level Pressure  
Sea Level Pressure 29.88 in    
Wind  
Wind Speed 5 mph (NE)    
Max Wind Speed 15 mph    
Max Gust Speed 28 mph    
Visibility 10 miles    
Events Thunderstorm    
Averages and records for this station are not official NWS values.
T = Trace of Precipitation, MM = Missing Value Source: NWS Daily Summary

Daily Weather History Graph

Daily Weather History Graph

Search for Another Location

Airport or City:

Trip Planner

Search our weather history database for the weather conditions in past years. The results will help you decide how hot, cold, wet, or windy it might be!

Date:

Astronomy

Aug. 24, 2014 Rise Set
Actual Time 6:16 AM CDT 7:18 PM CDT
Civil Twilight 5:51 AM CDT 7:43 PM CDT
Nautical Twilight 5:21 AM CDT 8:13 PM CDT
Astronomical Twilight 4:51 AM CDT 8:43 PM CDT
Moon 5:26 AM CDT (8/24) 6:38 PM CDT (8/24)
Length of Visible Light 13h 51m
Length of Day
13h 01m
Waning Crescent, 1% of the Moon is Illuminated
Aug 24
Waning Crescent
Aug 25
New
Sep 2
First Quarter
Sep 8
Full
Sep 15
Last Quarter

Hourly Weather History & Observations

Time (CDT) Temp. Heat Index Dew Point Humidity Pressure Visibility Wind Dir Wind Speed Gust Speed Precip Events Conditions
12:56 AM 81.0 °F 85.8 °F 73.0 °F 77% 29.89 in 10.0 mi NW 3.5 mph - N/A   Clear
1:56 AM 81.0 °F 85.2 °F 72.0 °F 74% 29.87 in 10.0 mi Calm Calm - N/A   Clear
2:56 AM 80.1 °F 83.8 °F 72.0 °F 76% 29.86 in 10.0 mi NW 4.6 mph - N/A   Clear
3:56 AM 80.1 °F 83.2 °F 70.0 °F 71% 29.86 in 10.0 mi NW 3.5 mph - N/A   Clear
4:56 AM 79.0 °F - 70.0 °F 74% 29.87 in 10.0 mi Calm Calm - N/A   Clear
5:56 AM 78.1 °F - 70.0 °F 76% 29.88 in 10.0 mi Calm Calm - N/A   Clear
6:56 AM 80.1 °F 83.6 °F 71.1 °F 74% 29.90 in 10.0 mi NNE 3.5 mph - N/A   Overcast
7:56 AM 84.9 °F 90.7 °F 72.0 °F 65% 29.91 in 10.0 mi ENE 3.5 mph - N/A   Clear
8:56 AM 91.0 °F 100.4 °F 73.9 °F 57% 29.90 in 10.0 mi Calm Calm - N/A   Clear
9:56 AM 95.0 °F 105.2 °F 73.9 °F 50% 29.90 in 10.0 mi North 4.6 mph - N/A   Clear
10:56 AM 97.0 °F 107.0 °F 73.0 °F 46% 29.90 in 10.0 mi Variable 5.8 mph - N/A   Clear
11:56 AM 99.0 °F 109.3 °F 73.0 °F 43% 29.90 in 10.0 mi North 10.4 mph - N/A   Clear
12:56 PM 100.0 °F 109.3 °F 72.0 °F 40% 29.88 in 10.0 mi North 12.7 mph - N/A   Clear
1:56 PM 100.0 °F 109.3 °F 72.0 °F 40% 29.85 in 10.0 mi NNE 9.2 mph - N/A   Partly Cloudy
2:56 PM 100.9 °F 110.6 °F 72.0 °F 39% 29.83 in 10.0 mi NNE 6.9 mph - N/A   Partly Cloudy
3:56 PM 102.0 °F 112.2 °F 72.0 °F 38% 29.81 in 10.0 mi NNE 9.2 mph - N/A   Partly Cloudy
4:56 PM 100.0 °F 108.6 °F 71.1 °F 39% 29.81 in 10.0 mi NNE 10.4 mph - N/A   Clear
5:53 PM 89.6 °F 94.7 °F 69.8 °F 52% 29.87 in 10.0 mi ENE 15.0 mph 27.6 mph N/A   Mostly Cloudy
5:56 PM 89.1 °F 94.1 °F 70.0 °F 53% 29.87 in 10.0 mi East 12.7 mph 27.6 mph N/A   Mostly Cloudy
6:07 PM 87.8 °F 93.8 °F 71.6 °F 58% 29.88 in 10.0 mi NE 10.4 mph 19.6 mph N/A Thunderstorm Thunderstorm
6:29 PM 84.2 °F 89.6 °F 71.6 °F 66% 29.88 in 10.0 mi East 6.9 mph - N/A   Clear
6:56 PM 84.0 °F 89.0 °F 71.1 °F 65% 29.86 in 10.0 mi East 6.9 mph - 0.00 in   Partly Cloudy
7:56 PM 82.0 °F 87.4 °F 73.0 °F 74% 29.88 in 10.0 mi ENE 6.9 mph - 0.00 in   Scattered Clouds
8:56 PM 82.0 °F 87.9 °F 73.9 °F 76% 29.90 in 10.0 mi East 8.1 mph - N/A   Clear
9:56 PM 81.0 °F 86.2 °F 73.9 °F 79% 29.91 in 10.0 mi East 3.5 mph - N/A   Clear
10:56 PM 80.1 °F 84.5 °F 73.9 °F 81% 29.92 in 10.0 mi East 4.6 mph - N/A   Clear
11:56 PM 80.1 °F 84.5 °F 73.9 °F 81% 29.92 in 10.0 mi ESE 5.8 mph - N/A   Clear